Regional Weather Roundup
Issued by NWS

Home | Current Version | Previous Version | Text Only | Print | Product List | Glossary On
Versions: 1 2 3 4 5 6 7 8 9 10 11 12 13 14 15 16 17 18 19 20 21 22 23 24 25 26 27 28 29 30 31 32 33 34 35 36 37 38 39 40 41 42 43 44 45 46 47 48 49 50
000
ASUS43 KDMX 250106
RWRIA

WEATHER ROUNDUP FOR IOWA
NATIONAL WEATHER SERVICE DES MOINES IA
700 PM CST FRI NOV 24 2017

NOTE: "FAIR" INDICATES FEW OR NO CLOUDS BELOW 12,000 FEET WITH NO
SIGNIFICANT WEATHER AND/OR OBSTRUCTIONS TO VISIBILITY.

* - THESE STATIONS ARE NOT NWS STATIONS...THUS NOT UNDER NWS
QUALITY CONTROL.  THEY ALSO DO NOT REPORT WEATHER SUCH
AS PRECIPITATION OR FOG.

IAZ001>003-012>014-020>022-031>034-043>046-250200-
   NORTHWEST IOWA

CITY           SKY/WX    TMP DP  RH WIND       PRES   REMARKS
CARROLL *      CLEAR     52  39  62 NW17G23   29.75R
CHEROKEE *     CLEAR     46  35  65 NW5       29.79R
DENISON *      CLEAR     50  37  62 NW15      29.79R
LE MARS *      CLEAR     46  36  66 NW10      29.80R
ORANGE CITY *  CLEAR     43  37  81 NW6       29.79R
SHELDON *      CLEAR     43  36  75 W12       29.77R
SIOUX CITY     CLEAR     48  36  63 NW8       29.81R
SPENCER        CLEAR     43  35  73 NW12      29.75R
STORM LAKE *   CLEAR     48  36  61 NW14      29.77R
$$

IAZ055>058-069>071-079>083-090>094-250200-
   SOUTHWEST IOWA

CITY           SKY/WX    TMP DP  RH WIND       PRES   REMARKS
ATLANTIC *     CLEAR     54  39  58 NW16G25   29.76R
AUDUBON *      CLEAR     54  41  62 NW16G24   29.76R
CLARINDA *       N/A     59  37  44 N15G22      N/A
COUNCIL BLFS * CLOUDY    55  39  54 NW16G29   29.79R
CRESTON *      CLEAR     54  36  50 NW14G20   29.74R
HARLAN  *      CLEAR     54  39  58 NW22G28   29.80R
LAMONI         PTCLDY    50  40  68 NW9       29.70R
RED OAK *      PTCLDY    55  39  54 NW12G18   29.77R
SHENANDOAH *   CLEAR     57  37  47 NW16G23   29.78R
$$

IAZ047>049-059>061-072>074-084-250200-
   CENTRAL IOWA

CITY           SKY/WX    TMP DP  RH WIND       PRES   REMARKS
AMES           PTCLDY    56  42  59 NW24G33   29.68R
ANKENY *       PTCLDY    57  43  58 NW18G30   29.70R
BOONE *        PTCLDY    54  41  62 NW20G28   29.69R
CHARITON *     MOCLDY    59  39  47 NW23G31   29.68R
DES MOINES     MOCLDY    59  41  51 NW21G31   29.69R
GRINNELL*      PTCLDY    56  40  54 NW23G29   29.65R
KNOXVILLE *    MOCLDY    59  39  47 NW22G32   29.66R
MARSHALLTOWN   PTCLDY    55  43  63 NW22G29   29.64R
NEWTON *       CLOUDY    57  41  54 NW23G31   29.66R
PELLA *        CLEAR     57  40  54 NW12G18   29.67R
PERRY *          N/A     54  38  53 NW17G24   29.72R
$$

IAZ004>006-015-016-023>025-035-036-250200-
   NORTH CENTRAL IOWA

CITY           SKY/WX    TMP DP  RH WIND       PRES   REMARKS
ALGONA *       CLEAR     46  39  76 NW13G20   29.72R
CLARION *      CLEAR     48  41  76 NW18G26   29.69R
ESTHERVILLE    CLEAR     43  36  76 NW13      29.71R
FORT DODGE *   CLEAR     50  39  66 NW14G20   29.72R
MASON CITY     CLEAR     46  39  76 NW21G31   29.67R
FOREST CITY *    N/A     46  37  71 NW16G23   29.68R
WEBSTER CITY * CLEAR     50  39  66 NW21G29   29.68R
IOWA FALLS *     N/A     53  42  65 NW26G39   29.67R
$$

IAZ007>011-017>019-026>030-037>042-050>054-066-250200-
   NORTHEAST IOWA

CITY           SKY/WX    TMP DP  RH WIND       PRES   REMARKS
CEDAR RAPIDS   CLEAR     50  41  71 W9        29.57R
CHARLES CITY * PTCLDY    50  45  81 NW20G28   29.62R
CLINTON *      CLEAR     51  42  71 W13       29.54R
DECORAH *      CLOUDY    54  46  76 NW14G22   29.54R
DUBUQUE        CLOUDY    53  40  61 NW6       29.53R
MONTICELLO *   CLOUDY    52  41  66 W5        29.54R
OELWEIN *      CLOUDY    54  46  76 NW17G24   29.58R
WATERLOO       CLOUDY    54  44  69 NW16G23   29.60R
$$

IAZ064-065-067-068-078-250200-
   EAST CENTRAL IOWA

CITY           SKY/WX    TMP DP  RH WIND       PRES   REMARKS
DAVENPORT      CLEAR     53  41  63 NW12      29.57R
IOWA CITY      MOCLDY    52  41  66 W7        29.59R
MT. PLEASANT * CLOUDY    59  40  50 W8        29.60R
MUSCATINE *    CLEAR     55  41  58 W8        29.58R
QUAD CITIES    CLEAR     60  41  49 NW10      29.54R
$$

IAZ062-063-075>077-085>089-095>099-250200-
   SOUTHEAST IOWA

CITY           SKY/WX    TMP DP  RH WIND       PRES   REMARKS
BURLINGTON     CLOUDY    61  43  51 NW12      29.59R
FAIRFIELD *    CLEAR     55  39  54 W6        29.61R
FORT MADISON * CLOUDY    59  45  58 NW10      29.62R
KEOKUK *       CLEAR     64  43  45 NW13G26   29.61R
OSKALOOSA *      N/A     49  39  70 W12       29.63R
OTTUMWA        CLEAR     51  40  65 W7        29.62R
WASHINGTON *   CLEAR     54  41  62 W9        29.61R
$$

ABBREVIATIONS USED IN REMARKS
   TC - TEMPERATURES IN CELSIUS
  WCI - WIND CHILL INDEX
   HX - HEAT INDEX
  VSB - VISIBILITY
$$





USA.gov is the U.S. government's official web portal to all federal, state and local government web resources and services.